Flag for Canada Weather past 2 weeks in Paradise, Newfoundland and Labrador, Canada

39 °F

Broken clouds.

Feels Like: 28 °F
Forecast: 33 / 46 °F
Wind: 28 mph from West

Location: St. John's

Current Time: Nov 27, 2015 at 8:52:28 AM

Latest Report: Nov 27, 2015 at 7:30 AM

Visibility: 15 mi

Pressure: 30.54 "Hg

Humidity: 75%

Dew point: 32 °F

Location of ParadiseLocation

Historic Weather in Paradise — Graph


Paradise temperature yesterday

Maximum temperature yesterday: 34 °F (at 1:30 PM)
Minimum temperature yesterday: 25 °F (at 6:30 AM)
Average temperature yesterday: 30 °F

Past Weeks' High & Low Weather Summary

High50 °F (Nov 24, 1:30 PM)100% (Nov 14, 8:30 AM)30.98 "Hg (Nov 14, 8:30 AM)
Low25 °F (Nov 26, 6:30 AM)51% (Nov 26, 1:30 PM)29.31 "Hg (Nov 15, 3:30 AM)
Average35 °F87%30.12 "Hg
* Reported Nov 12 7:30 AM — Nov 27 7:30 AM, Paradise, Weather by CustomWeather, © 2015

Note: Actual official high and low records may vary slightly from our data, if they occured in-between our weather recording intervals... More about our weather records


Paradise weather history for previous 24 hours

Time TempWeatherWind HumidityBarometerVisibility
7:30 AM
Fri, Nov 27
39 °FBroken clouds.28 mph75%30.54 "Hg15 mi
6:30 AM39 °FOvercast.32 mph75%30.54 "Hg15 mi
5:30 AM37 °FOvercast.31 mph81%30.56 "Hg15 mi
4:30 AM37 °FOvercast.35 mph75%30.58 "Hg15 mi
2:30 AM36 °FPassing clouds.25 mph81%30.65 "Hg15 mi
1:30 AM36 °FOvercast.31 mph75%30.67 "Hg15 mi
12:30 AM34 °FPassing clouds.29 mph81%30.69 "Hg15 mi
11:30 PM
Thu, Nov 26
34 °FPassing clouds.24 mph81%30.74 "Hg15 mi
10:30 PM34 °FPassing clouds.23 mph75%30.76 "Hg15 mi
9:30 PM32 °FPassing clouds.23 mph75%30.79 "Hg15 mi
8:30 PM32 °FPassing clouds.23 mph75%30.83 "Hg15 mi
7:30 PM30 °FPassing clouds.21 mph75%30.85 "Hg15 mi
6:30 PM30 °FClear.15 mph69%30.86 "Hg15 mi
5:30 PM30 °FPassing clouds.10 mph64%30.88 "Hg15 mi
4:30 PM30 °FPassing clouds.13 mph59%30.89 "Hg15 mi
3:30 PM32 °FPassing clouds.14 mph55%30.90 "Hg15 mi
2:30 PM34 °FPassing clouds.12 mph51%30.91 "Hg15 mi
1:30 PM34 °FPassing clouds.14 mph51%30.94 "Hg15 mi
12:30 PM32 °FPassing clouds.17 mph55%30.96 "Hg15 mi
11:30 AM30 °FPassing clouds.16 mph64%30.96 "Hg15 mi
10:30 AM30 °FPassing clouds.15 mph59%30.98 "Hg15 mi
9:30 AM28 °FPassing clouds.15 mph64%30.98 "Hg15 mi
8:30 AM27 °FPassing clouds.9 mph64%30.97 "Hg15 mi
Weather by CustomWeather, © 2015

See weather overviewHow to use our weather pages